sat.trackr.live / text

‹ back to catalog

STARLINK-3162

NORAD 49411 · 2021-104D

PAYLOAD ACTIVE UNKNOWN

§ Identity

Operator
Country
US
Launch date
2021-11-13
Launch site
AFETR
Launch vehicle
Mass (kg)
RCS (m²)

Purposes: comms

External: N2YO · Heavens-Above · Gunter

§ Orbital elements

Epoch: 2026-05-24T22:55:26.109984Z

Period
95.44 min
Inclination
53.2136°
Eccentricity
0.0000638
Mean motion
15.08831258 rev/d
Perigee alt
539.3 km
Apogee alt
540.2 km
Semi-major
6,917.9 km
B*
1.6586e-4
RAAN
236.7497°
Arg perigee
145.0915°
Mean anomaly
215.0119°
Rev number
25,028

§ Raw data

STARLINK-31621 49411U 21104D   26144.95516331  .00002352  00000+0  16586-3 0  99972 49411  53.2136 236.7497 0000638 145.0915 215.0119 15.08831258250288

JSON: /api/v1/satellites/49411 · /tle

For live sub-satellite position, see the globe view (requires WebGL).

§ Visibility from observer

Set your observer location to see the next 7 days of passes ≥ 10°. The values pass through the URL so the page stays shareable.

No JS? Fill the form by hand. The geolocation button needs JavaScript.